Index of /20260425/WXO-DD/model_caps/3km/00/015
Name Last modified Size Description
Parent Directory -
20260425T00Z_MSC_CAPS_AbsoluteVorticity_IsbL-0250_RLatLon0.03_PT015H.grib2 2026-04-25 06:21 1.2M
20260425T00Z_MSC_CAPS_AbsoluteVorticity_IsbL-0500_RLatLon0.03_PT015H.grib2 2026-04-25 06:21 1.4M
20260425T00Z_MSC_CAPS_AbsoluteVorticity_IsbL-0700_RLatLon0.03_PT015H.grib2 2026-04-25 06:21 1.2M
20260425T00Z_MSC_CAPS_AbsoluteVorticity_IsbL-0850_RLatLon0.03_PT015H.grib2 2026-04-25 06:21 1.4M
20260425T00Z_MSC_CAPS_AbsoluteVorticity_IsbL-1000_RLatLon0.03_PT015H.grib2 2026-04-25 06:21 1.4M
20260425T00Z_MSC_CAPS_AirDensity_AGL-120m_RLatLon0.03_PT015H.grib2 2026-04-25 06:21 1.5M
20260425T00Z_MSC_CAPS_AirDensity_AGL-40m_RLatLon0.03_PT015H.grib2 2026-04-25 06:21 1.5M
20260425T00Z_MSC_CAPS_AirDensity_AGL-80m_RLatLon0.03_PT015H.grib2 2026-04-25 06:21 1.5M
20260425T00Z_MSC_CAPS_AirTemp_AGL-120m_RLatLon0.03_PT015H.grib2 2026-04-25 06:21 1.8M
20260425T00Z_MSC_CAPS_AirTemp_AGL-2m_RLatLon0.03_PT015H.grib2 2026-04-25 06:21 2.1M
20260425T00Z_MSC_CAPS_AirTemp_AGL-40m_RLatLon0.03_PT015H.grib2 2026-04-25 06:21 1.9M
20260425T00Z_MSC_CAPS_AirTemp_AGL-80m_RLatLon0.03_PT015H.grib2 2026-04-25 06:21 1.8M
20260425T00Z_MSC_CAPS_AirTemp_IsbL-0050_RLatLon0.03_PT015H.grib2 2026-04-25 06:21 907K
20260425T00Z_MSC_CAPS_AirTemp_IsbL-0100_RLatLon0.03_PT015H.grib2 2026-04-25 06:21 787K
20260425T00Z_MSC_CAPS_AirTemp_IsbL-0150_RLatLon0.03_PT015H.grib2 2026-04-25 06:21 1.0M
20260425T00Z_MSC_CAPS_AirTemp_IsbL-0175_RLatLon0.03_PT015H.grib2 2026-04-25 06:21 775K
20260425T00Z_MSC_CAPS_AirTemp_IsbL-0200_RLatLon0.03_PT015H.grib2 2026-04-25 06:21 788K
20260425T00Z_MSC_CAPS_AirTemp_IsbL-0225_RLatLon0.03_PT015H.grib2 2026-04-25 06:21 784K
20260425T00Z_MSC_CAPS_AirTemp_IsbL-0250_RLatLon0.03_PT015H.grib2 2026-04-25 06:21 1.0M
20260425T00Z_MSC_CAPS_AirTemp_IsbL-0275_RLatLon0.03_PT015H.grib2 2026-04-25 06:21 1.0M
20260425T00Z_MSC_CAPS_AirTemp_IsbL-0300_RLatLon0.03_PT015H.grib2 2026-04-25 06:21 1.0M
20260425T00Z_MSC_CAPS_AirTemp_IsbL-0350_RLatLon0.03_PT015H.grib2 2026-04-25 06:21 1.0M
20260425T00Z_MSC_CAPS_AirTemp_IsbL-0400_RLatLon0.03_PT015H.grib2 2026-04-25 06:21 748K
20260425T00Z_MSC_CAPS_AirTemp_IsbL-0450_RLatLon0.03_PT015H.grib2 2026-04-25 06:21 764K
20260425T00Z_MSC_CAPS_AirTemp_IsbL-0500_RLatLon0.03_PT015H.grib2 2026-04-25 06:21 778K
20260425T00Z_MSC_CAPS_AirTemp_IsbL-0550_RLatLon0.03_PT015H.grib2 2026-04-25 06:21 790K
20260425T00Z_MSC_CAPS_AirTemp_IsbL-0600_RLatLon0.03_PT015H.grib2 2026-04-25 06:21 802K
20260425T00Z_MSC_CAPS_AirTemp_IsbL-0650_RLatLon0.03_PT015H.grib2 2026-04-25 06:21 826K
20260425T00Z_MSC_CAPS_AirTemp_IsbL-0700_RLatLon0.03_PT015H.grib2 2026-04-25 06:21 852K
20260425T00Z_MSC_CAPS_AirTemp_IsbL-0750_RLatLon0.03_PT015H.grib2 2026-04-25 06:21 885K
20260425T00Z_MSC_CAPS_AirTemp_IsbL-0800_RLatLon0.03_PT015H.grib2 2026-04-25 06:21 1.0M
20260425T00Z_MSC_CAPS_AirTemp_IsbL-0850_RLatLon0.03_PT015H.grib2 2026-04-25 06:21 1.1M
20260425T00Z_MSC_CAPS_AirTemp_IsbL-0875_RLatLon0.03_PT015H.grib2 2026-04-25 06:21 1.1M
20260425T00Z_MSC_CAPS_AirTemp_IsbL-0900_RLatLon0.03_PT015H.grib2 2026-04-25 06:21 1.1M
20260425T00Z_MSC_CAPS_AirTemp_IsbL-0925_RLatLon0.03_PT015H.grib2 2026-04-25 06:21 1.1M
20260425T00Z_MSC_CAPS_AirTemp_IsbL-0950_RLatLon0.03_PT015H.grib2 2026-04-25 06:21 1.1M
20260425T00Z_MSC_CAPS_AirTemp_IsbL-0970_RLatLon0.03_PT015H.grib2 2026-04-25 06:21 1.1M
20260425T00Z_MSC_CAPS_AirTemp_IsbL-0985_RLatLon0.03_PT015H.grib2 2026-04-25 06:21 1.1M
20260425T00Z_MSC_CAPS_AirTemp_IsbL-1000_RLatLon0.03_PT015H.grib2 2026-04-25 06:21 1.1M
20260425T00Z_MSC_CAPS_AirTemp_IsbL-1015_RLatLon0.03_PT015H.grib2 2026-04-25 06:21 1.1M
20260425T00Z_MSC_CAPS_Albedo_Sfc_RLatLon0.03_PT015H.grib2 2026-04-25 06:21 2.7M
20260425T00Z_MSC_CAPS_CAPE_Sfc_RLatLon0.03_PT015H.grib2 2026-04-25 06:21 137K
20260425T00Z_MSC_CAPS_CloudWater_EAtm_RLatLon0.03_PT015H.grib2 2026-04-25 06:21 1.4M
20260425T00Z_MSC_CAPS_ConvectivePrecip-Accum_Sfc_RLatLon0.03_PT015H.grib2 2026-04-25 06:21 3.0M
20260425T00Z_MSC_CAPS_DewPointDepression_AGL-120m_RLatLon0.03_PT015H.grib2 2026-04-25 06:21 2.0M
20260425T00Z_MSC_CAPS_DewPointDepression_AGL-2m_RLatLon0.03_PT015H.grib2 2026-04-25 06:21 2.1M
20260425T00Z_MSC_CAPS_DewPointDepression_AGL-40m_RLatLon0.03_PT015H.grib2 2026-04-25 06:21 2.1M
20260425T00Z_MSC_CAPS_DewPointDepression_AGL-80m_RLatLon0.03_PT015H.grib2 2026-04-25 06:21 2.1M
20260425T00Z_MSC_CAPS_DewPointDepression_IsbL-0050_RLatLon0.03_PT015H.grib2 2026-04-25 06:21 193
20260425T00Z_MSC_CAPS_DewPointDepression_IsbL-0100_RLatLon0.03_PT015H.grib2 2026-04-25 06:21 139K
20260425T00Z_MSC_CAPS_DewPointDepression_IsbL-0150_RLatLon0.03_PT015H.grib2 2026-04-25 06:21 180K
20260425T00Z_MSC_CAPS_DewPointDepression_IsbL-0175_RLatLon0.03_PT015H.grib2 2026-04-25 06:21 298K
20260425T00Z_MSC_CAPS_DewPointDepression_IsbL-0200_RLatLon0.03_PT015H.grib2 2026-04-25 06:21 442K
20260425T00Z_MSC_CAPS_DewPointDepression_IsbL-0225_RLatLon0.03_PT015H.grib2 2026-04-25 06:21 646K
20260425T00Z_MSC_CAPS_DewPointDepression_IsbL-0250_RLatLon0.03_PT015H.grib2 2026-04-25 06:21 818K
20260425T00Z_MSC_CAPS_DewPointDepression_IsbL-0275_RLatLon0.03_PT015H.grib2 2026-04-25 06:21 961K
20260425T00Z_MSC_CAPS_DewPointDepression_IsbL-0300_RLatLon0.03_PT015H.grib2 2026-04-25 06:21 1.0M
20260425T00Z_MSC_CAPS_DewPointDepression_IsbL-0350_RLatLon0.03_PT015H.grib2 2026-04-25 06:21 1.1M
20260425T00Z_MSC_CAPS_DewPointDepression_IsbL-0400_RLatLon0.03_PT015H.grib2 2026-04-25 06:21 1.1M
20260425T00Z_MSC_CAPS_DewPointDepression_IsbL-0450_RLatLon0.03_PT015H.grib2 2026-04-25 06:21 1.1M
20260425T00Z_MSC_CAPS_DewPointDepression_IsbL-0500_RLatLon0.03_PT015H.grib2 2026-04-25 06:21 1.2M
20260425T00Z_MSC_CAPS_DewPointDepression_IsbL-0550_RLatLon0.03_PT015H.grib2 2026-04-25 06:21 1.2M
20260425T00Z_MSC_CAPS_DewPointDepression_IsbL-0600_RLatLon0.03_PT015H.grib2 2026-04-25 06:21 1.2M
20260425T00Z_MSC_CAPS_DewPointDepression_IsbL-0650_RLatLon0.03_PT015H.grib2 2026-04-25 06:21 1.2M
20260425T00Z_MSC_CAPS_DewPointDepression_IsbL-0700_RLatLon0.03_PT015H.grib2 2026-04-25 06:21 1.3M
20260425T00Z_MSC_CAPS_DewPointDepression_IsbL-0750_RLatLon0.03_PT015H.grib2 2026-04-25 06:21 1.3M
20260425T00Z_MSC_CAPS_DewPointDepression_IsbL-0800_RLatLon0.03_PT015H.grib2 2026-04-25 06:21 1.3M
20260425T00Z_MSC_CAPS_DewPointDepression_IsbL-0850_RLatLon0.03_PT015H.grib2 2026-04-25 06:21 1.4M
20260425T00Z_MSC_CAPS_DewPointDepression_IsbL-0875_RLatLon0.03_PT015H.grib2 2026-04-25 06:21 1.4M
20260425T00Z_MSC_CAPS_DewPointDepression_IsbL-0900_RLatLon0.03_PT015H.grib2 2026-04-25 06:21 1.4M
20260425T00Z_MSC_CAPS_DewPointDepression_IsbL-0925_RLatLon0.03_PT015H.grib2 2026-04-25 06:21 1.3M
20260425T00Z_MSC_CAPS_DewPointDepression_IsbL-0950_RLatLon0.03_PT015H.grib2 2026-04-25 06:21 1.3M
20260425T00Z_MSC_CAPS_DewPointDepression_IsbL-0970_RLatLon0.03_PT015H.grib2 2026-04-25 06:21 1.3M
20260425T00Z_MSC_CAPS_DewPointDepression_IsbL-0985_RLatLon0.03_PT015H.grib2 2026-04-25 06:21 1.3M
20260425T00Z_MSC_CAPS_DewPointDepression_IsbL-1000_RLatLon0.03_PT015H.grib2 2026-04-25 06:21 1.3M
20260425T00Z_MSC_CAPS_DewPointDepression_IsbL-1015_RLatLon0.03_PT015H.grib2 2026-04-25 06:21 1.3M
20260425T00Z_MSC_CAPS_DewPoint_AGL-120m_RLatLon0.03_PT015H.grib2 2026-04-25 06:21 3.7M
20260425T00Z_MSC_CAPS_DewPoint_AGL-2m_RLatLon0.03_PT015H.grib2 2026-04-25 06:21 2.2M
20260425T00Z_MSC_CAPS_DewPoint_AGL-40m_RLatLon0.03_PT015H.grib2 2026-04-25 06:21 3.7M
20260425T00Z_MSC_CAPS_DewPoint_AGL-80m_RLatLon0.03_PT015H.grib2 2026-04-25 06:21 3.7M
20260425T00Z_MSC_CAPS_DownwardLongwaveRadiationFlux-Accum_Sfc_RLatLon0.03_PT015H.grib2 2026-04-25 06:21 2.4M
20260425T00Z_MSC_CAPS_DownwardShortwaveRadiationFlux-Accum_NTAtm_RLatLon0.03_PT015H.grib2 2026-04-25 06:21 478K
20260425T00Z_MSC_CAPS_DownwardShortwaveRadiationFlux-Accum_Sfc_RLatLon0.03_PT015H.grib2 2026-04-25 06:21 2.5M
20260425T00Z_MSC_CAPS_FreezingRain-Accum_Sfc_RLatLon0.03_PT015H.grib2 2026-04-25 06:21 523K
20260425T00Z_MSC_CAPS_GeopotentialHeight_IsbL-0050_RLatLon0.03_PT015H.grib2 2026-04-25 06:21 830K
20260425T00Z_MSC_CAPS_GeopotentialHeight_IsbL-0100_RLatLon0.03_PT015H.grib2 2026-04-25 06:21 804K
20260425T00Z_MSC_CAPS_GeopotentialHeight_IsbL-0150_RLatLon0.03_PT015H.grib2 2026-04-25 06:21 765K
20260425T00Z_MSC_CAPS_GeopotentialHeight_IsbL-0175_RLatLon0.03_PT015H.grib2 2026-04-25 06:21 616K
20260425T00Z_MSC_CAPS_GeopotentialHeight_IsbL-0200_RLatLon0.03_PT015H.grib2 2026-04-25 06:21 630K
20260425T00Z_MSC_CAPS_GeopotentialHeight_IsbL-0225_RLatLon0.03_PT015H.grib2 2026-04-25 06:21 754K
20260425T00Z_MSC_CAPS_GeopotentialHeight_IsbL-0250_RLatLon0.03_PT015H.grib2 2026-04-25 06:21 763K
20260425T00Z_MSC_CAPS_GeopotentialHeight_IsbL-0275_RLatLon0.03_PT015H.grib2 2026-04-25 06:21 771K
20260425T00Z_MSC_CAPS_GeopotentialHeight_IsbL-0300_RLatLon0.03_PT015H.grib2 2026-04-25 06:21 776K
20260425T00Z_MSC_CAPS_GeopotentialHeight_IsbL-0350_RLatLon0.03_PT015H.grib2 2026-04-25 06:21 780K
20260425T00Z_MSC_CAPS_GeopotentialHeight_IsbL-0400_RLatLon0.03_PT015H.grib2 2026-04-25 06:21 775K
20260425T00Z_MSC_CAPS_GeopotentialHeight_IsbL-0450_RLatLon0.03_PT015H.grib2 2026-04-25 06:21 765K
20260425T00Z_MSC_CAPS_GeopotentialHeight_IsbL-0500_RLatLon0.03_PT015H.grib2 2026-04-25 06:21 639K
20260425T00Z_MSC_CAPS_GeopotentialHeight_IsbL-0550_RLatLon0.03_PT015H.grib2 2026-04-25 06:21 632K
20260425T00Z_MSC_CAPS_GeopotentialHeight_IsbL-0600_RLatLon0.03_PT015H.grib2 2026-04-25 06:21 793K
20260425T00Z_MSC_CAPS_GeopotentialHeight_IsbL-0650_RLatLon0.03_PT015H.grib2 2026-04-25 06:21 800K
20260425T00Z_MSC_CAPS_GeopotentialHeight_IsbL-0700_RLatLon0.03_PT015H.grib2 2026-04-25 06:21 872K
20260425T00Z_MSC_CAPS_GeopotentialHeight_IsbL-0750_RLatLon0.03_PT015H.grib2 2026-04-25 06:21 873K
20260425T00Z_MSC_CAPS_GeopotentialHeight_IsbL-0800_RLatLon0.03_PT015H.grib2 2026-04-25 06:21 879K
20260425T00Z_MSC_CAPS_GeopotentialHeight_IsbL-0850_RLatLon0.03_PT015H.grib2 2026-04-25 06:21 814K
20260425T00Z_MSC_CAPS_GeopotentialHeight_IsbL-0875_RLatLon0.03_PT015H.grib2 2026-04-25 06:21 807K
20260425T00Z_MSC_CAPS_GeopotentialHeight_IsbL-0900_RLatLon0.03_PT015H.grib2 2026-04-25 06:21 825K
20260425T00Z_MSC_CAPS_GeopotentialHeight_IsbL-0925_RLatLon0.03_PT015H.grib2 2026-04-25 06:21 841K
20260425T00Z_MSC_CAPS_GeopotentialHeight_IsbL-0950_RLatLon0.03_PT015H.grib2 2026-04-25 06:21 841K
20260425T00Z_MSC_CAPS_GeopotentialHeight_IsbL-0970_RLatLon0.03_PT015H.grib2 2026-04-25 06:21 861K
20260425T00Z_MSC_CAPS_GeopotentialHeight_IsbL-0985_RLatLon0.03_PT015H.grib2 2026-04-25 06:21 871K
20260425T00Z_MSC_CAPS_GeopotentialHeight_IsbL-1000_RLatLon0.03_PT015H.grib2 2026-04-25 06:21 881K
20260425T00Z_MSC_CAPS_GeopotentialHeight_IsbL-1015_RLatLon0.03_PT015H.grib2 2026-04-25 06:21 890K
20260425T00Z_MSC_CAPS_GeopotentialHeight_Sfc_RLatLon0.03_PT015H.grib2 2026-04-25 06:21 1.0M
20260425T00Z_MSC_CAPS_IcePellets-Accum_Sfc_RLatLon0.03_PT015H.grib2 2026-04-25 06:21 34K
20260425T00Z_MSC_CAPS_LatentHeatNetFlux_Sfc_RLatLon0.03_PT015H.grib2 2026-04-25 06:21 1.7M
20260425T00Z_MSC_CAPS_LiftedIndex-MU-VT_IsbL-0500_RLatLon0.03_PT015H.grib2 2026-04-25 06:21 3.3M
20260425T00Z_MSC_CAPS_MixedLayerThickness_Sfc_RLatLon0.03_PT015H.nc 2026-04-25 06:15 17M
20260425T00Z_MSC_CAPS_NetLongwaveRadiationFlux-Accum_Sfc_RLatLon0.03_PT015H.grib2 2026-04-25 06:21 2.7M
20260425T00Z_MSC_CAPS_NetShortwaveRadiationFlux-Accum_Sfc_RLatLon0.03_PT015H.grib2 2026-04-25 06:21 2.6M
20260425T00Z_MSC_CAPS_PlanetaryBoundaryLayerHeight_Sfc_RLatLon0.03_PT015H.grib2 2026-04-25 06:21 2.7M
20260425T00Z_MSC_CAPS_Precip-Accum_Sfc_RLatLon0.03_PT015H.grib2 2026-04-25 06:21 3.8M
20260425T00Z_MSC_CAPS_PrecipRate_Sfc_RLatLon0.03_PT015H.grib2 2026-04-25 06:21 406K
20260425T00Z_MSC_CAPS_PrecipType-Instant_Sfc_RLatLon0.03_PT015H.grib2 2026-04-25 06:21 1.7M
20260425T00Z_MSC_CAPS_Pressure_MSL_RLatLon0.03_PT015H.grib2 2026-04-25 06:21 921K
20260425T00Z_MSC_CAPS_Pressure_Sfc_RLatLon0.03_PT015H.grib2 2026-04-25 06:21 1.3M
20260425T00Z_MSC_CAPS_RadiativeTemp_Sfc_RLatLon0.03_PT015H.grib2 2026-04-25 06:21 2.1M
20260425T00Z_MSC_CAPS_Rain-Accum_Sfc_RLatLon0.03_PT015H.grib2 2026-04-25 06:21 1.5M
20260425T00Z_MSC_CAPS_RelativeHumidity_AGL-120m_RLatLon0.03_PT015H.grib2 2026-04-25 06:21 2.8M
20260425T00Z_MSC_CAPS_RelativeHumidity_AGL-2m_RLatLon0.03_PT015H.grib2 2026-04-25 06:21 2.9M
20260425T00Z_MSC_CAPS_RelativeHumidity_AGL-40m_RLatLon0.03_PT015H.grib2 2026-04-25 06:21 2.8M
20260425T00Z_MSC_CAPS_RelativeHumidity_AGL-80m_RLatLon0.03_PT015H.grib2 2026-04-25 06:21 2.8M
20260425T00Z_MSC_CAPS_RelativeHumidity_IsbL-0050_RLatLon0.03_PT015H.grib2 2026-04-25 06:21 896K
20260425T00Z_MSC_CAPS_RelativeHumidity_IsbL-0100_RLatLon0.03_PT015H.grib2 2026-04-25 06:21 865K
20260425T00Z_MSC_CAPS_RelativeHumidity_IsbL-0150_RLatLon0.03_PT015H.grib2 2026-04-25 06:21 905K
20260425T00Z_MSC_CAPS_RelativeHumidity_IsbL-0175_RLatLon0.03_PT015H.grib2 2026-04-25 06:21 539K
20260425T00Z_MSC_CAPS_RelativeHumidity_IsbL-0200_RLatLon0.03_PT015H.grib2 2026-04-25 06:21 701K
20260425T00Z_MSC_CAPS_RelativeHumidity_IsbL-0225_RLatLon0.03_PT015H.grib2 2026-04-25 06:21 890K
20260425T00Z_MSC_CAPS_RelativeHumidity_IsbL-0250_RLatLon0.03_PT015H.grib2 2026-04-25 06:21 1.1M
20260425T00Z_MSC_CAPS_RelativeHumidity_IsbL-0275_RLatLon0.03_PT015H.grib2 2026-04-25 06:21 1.3M
20260425T00Z_MSC_CAPS_RelativeHumidity_IsbL-0300_RLatLon0.03_PT015H.grib2 2026-04-25 06:21 1.5M
20260425T00Z_MSC_CAPS_RelativeHumidity_IsbL-0350_RLatLon0.03_PT015H.grib2 2026-04-25 06:21 1.7M
20260425T00Z_MSC_CAPS_RelativeHumidity_IsbL-0400_RLatLon0.03_PT015H.grib2 2026-04-25 06:21 1.9M
20260425T00Z_MSC_CAPS_RelativeHumidity_IsbL-0450_RLatLon0.03_PT015H.grib2 2026-04-25 06:21 2.0M
20260425T00Z_MSC_CAPS_RelativeHumidity_IsbL-0500_RLatLon0.03_PT015H.grib2 2026-04-25 06:21 2.0M
20260425T00Z_MSC_CAPS_RelativeHumidity_IsbL-0550_RLatLon0.03_PT015H.grib2 2026-04-25 06:21 2.2M
20260425T00Z_MSC_CAPS_RelativeHumidity_IsbL-0600_RLatLon0.03_PT015H.grib2 2026-04-25 06:21 2.2M
20260425T00Z_MSC_CAPS_RelativeHumidity_IsbL-0650_RLatLon0.03_PT015H.grib2 2026-04-25 06:21 2.1M
20260425T00Z_MSC_CAPS_RelativeHumidity_IsbL-0700_RLatLon0.03_PT015H.grib2 2026-04-25 06:21 2.1M
20260425T00Z_MSC_CAPS_RelativeHumidity_IsbL-0750_RLatLon0.03_PT015H.grib2 2026-04-25 06:21 2.3M
20260425T00Z_MSC_CAPS_RelativeHumidity_IsbL-0800_RLatLon0.03_PT015H.grib2 2026-04-25 06:21 2.4M
20260425T00Z_MSC_CAPS_RelativeHumidity_IsbL-0850_RLatLon0.03_PT015H.grib2 2026-04-25 06:21 2.5M
20260425T00Z_MSC_CAPS_RelativeHumidity_IsbL-0875_RLatLon0.03_PT015H.grib2 2026-04-25 06:21 2.5M
20260425T00Z_MSC_CAPS_RelativeHumidity_IsbL-0900_RLatLon0.03_PT015H.grib2 2026-04-25 06:21 2.5M
20260425T00Z_MSC_CAPS_RelativeHumidity_IsbL-0925_RLatLon0.03_PT015H.grib2 2026-04-25 06:21 2.6M
20260425T00Z_MSC_CAPS_RelativeHumidity_IsbL-0950_RLatLon0.03_PT015H.grib2 2026-04-25 06:21 2.6M
20260425T00Z_MSC_CAPS_RelativeHumidity_IsbL-0970_RLatLon0.03_PT015H.grib2 2026-04-25 06:21 2.7M
20260425T00Z_MSC_CAPS_RelativeHumidity_IsbL-0985_RLatLon0.03_PT015H.grib2 2026-04-25 06:21 2.8M
20260425T00Z_MSC_CAPS_RelativeHumidity_IsbL-1000_RLatLon0.03_PT015H.grib2 2026-04-25 06:21 2.8M
20260425T00Z_MSC_CAPS_RelativeHumidity_IsbL-1015_RLatLon0.03_PT015H.grib2 2026-04-25 06:21 2.9M
20260425T00Z_MSC_CAPS_Runoff-Accum_Sfc_RLatLon0.03_PT015H.grib2 2026-04-25 06:21 180K
20260425T00Z_MSC_CAPS_SeaIceAreaFraction_Sfc_RLatLon0.03_PT015H.nc 2026-04-25 06:15 15M
20260425T00Z_MSC_CAPS_SeaIceCompressiveStrength_Sfc_RLatLon0.03_PT015H.nc 2026-04-25 06:15 15M
20260425T00Z_MSC_CAPS_SeaIceDivergence_Sfc_RLatLon0.03_PT015H.nc 2026-04-25 06:15 15M
20260425T00Z_MSC_CAPS_SeaIceInternalPressure_Sfc_RLatLon0.03_PT015H.nc 2026-04-25 06:15 15M
20260425T00Z_MSC_CAPS_SeaIceShear_Sfc_RLatLon0.03_PT015H.nc 2026-04-25 06:15 15M
20260425T00Z_MSC_CAPS_SeaIceSnowTemp_Sfc_RLatLon0.03_PT015H.nc 2026-04-25 06:15 15M
20260425T00Z_MSC_CAPS_SeaIceSnowVolume_Sfc_RLatLon0.03_PT015H.nc 2026-04-25 06:15 15M
20260425T00Z_MSC_CAPS_SeaIceVelocityX_Sfc_RLatLon0.03_PT015H.nc 2026-04-25 06:15 15M
20260425T00Z_MSC_CAPS_SeaIceVelocityY_Sfc_RLatLon0.03_PT015H.nc 2026-04-25 06:15 15M
20260425T00Z_MSC_CAPS_SeaIceVolume_Sfc_RLatLon0.03_PT015H.nc 2026-04-25 06:15 15M
20260425T00Z_MSC_CAPS_SeaSurfaceHeight_Sfc_RLatLon0.03_PT015H.nc 2026-04-25 06:15 16M
20260425T00Z_MSC_CAPS_SeaWaterSalinity_DBS-0.5m_RLatLon0.03_PT015H.nc 2026-04-25 06:15 16M
20260425T00Z_MSC_CAPS_SeaWaterSalinity_DBS-all_RLatLon0.03_PT015H.nc 2026-04-25 06:15 107M
20260425T00Z_MSC_CAPS_SeaWaterTemp_DBS-0.5m_RLatLon0.03_PT015H.nc 2026-04-25 06:15 14M
20260425T00Z_MSC_CAPS_SeaWaterTemp_DBS-all_RLatLon0.03_PT015H.nc 2026-04-25 06:15 87M
20260425T00Z_MSC_CAPS_SeaWaterVelocityX_DBS-0.5m_RLatLon0.03_PT015H.nc 2026-04-25 06:15 17M
20260425T00Z_MSC_CAPS_SeaWaterVelocityX_DBS-all_RLatLon0.03_PT015H.nc 2026-04-25 06:15 212M
20260425T00Z_MSC_CAPS_SeaWaterVelocityY_DBS-0.5m_RLatLon0.03_PT015H.nc 2026-04-25 06:15 18M
20260425T00Z_MSC_CAPS_SeaWaterVelocityY_DBS-all_RLatLon0.03_PT015H.nc 2026-04-25 06:15 218M
20260425T00Z_MSC_CAPS_SensibleHeatNetFlux_Sfc_RLatLon0.03_PT015H.grib2 2026-04-25 06:21 2.1M
20260425T00Z_MSC_CAPS_ShowalterIndex_IsbL-0500_RLatLon0.03_PT015H.grib2 2026-04-25 06:21 4.3M
20260425T00Z_MSC_CAPS_Snow-Accum_Sfc_RLatLon0.03_PT015H.grib2 2026-04-25 06:21 3.1M
20260425T00Z_MSC_CAPS_SnowDensity_Sfc_RLatLon0.03_PT015H.grib2 2026-04-25 06:21 1.3M
20260425T00Z_MSC_CAPS_SnowDepthWaterEquivalent_Sfc_RLatLon0.03_PT015H.grib2 2026-04-25 06:21 719K
20260425T00Z_MSC_CAPS_SnowDepth_Sfc_RLatLon0.03_PT015H.grib2 2026-04-25 06:21 1.3M
20260425T00Z_MSC_CAPS_SoilTemp_DBS-0to10cm_RLatLon0.03_PT015H.grib2 2026-04-25 06:21 1.5M
20260425T00Z_MSC_CAPS_SoilTemp_Sfc_RLatLon0.03_PT015H.grib2 2026-04-25 06:21 1.8M
20260425T00Z_MSC_CAPS_SoilVolumetricIceContent_Sfc_RLatLon0.03_PT015H.grib2 2026-04-25 06:21 1.4M
20260425T00Z_MSC_CAPS_SoilVolumetricWaterContent_DBS-0to10cm_RLatLon0.03_PT015H.grib2 2026-04-25 06:21 1.0M
20260425T00Z_MSC_CAPS_SoilVolumetricWaterContent_DBS-0to1cm_RLatLon0.03_PT015H.grib2 2026-04-25 06:21 1.6M
20260425T00Z_MSC_CAPS_SpecificHumidity_AGL-120m_RLatLon0.03_PT015H.grib2 2026-04-25 06:21 1.7M
20260425T00Z_MSC_CAPS_SpecificHumidity_AGL-2m_RLatLon0.03_PT015H.grib2 2026-04-25 06:21 2.0M
20260425T00Z_MSC_CAPS_SpecificHumidity_AGL-40m_RLatLon0.03_PT015H.grib2 2026-04-25 06:21 1.7M
20260425T00Z_MSC_CAPS_SpecificHumidity_AGL-80m_RLatLon0.03_PT015H.grib2 2026-04-25 06:21 1.7M
20260425T00Z_MSC_CAPS_SpecificHumidity_IsbL-0050_RLatLon0.03_PT015H.grib2 2026-04-25 06:21 915K
20260425T00Z_MSC_CAPS_SpecificHumidity_IsbL-0100_RLatLon0.03_PT015H.grib2 2026-04-25 06:21 795K
20260425T00Z_MSC_CAPS_SpecificHumidity_IsbL-0150_RLatLon0.03_PT015H.grib2 2026-04-25 06:21 1.1M
20260425T00Z_MSC_CAPS_SpecificHumidity_IsbL-0175_RLatLon0.03_PT015H.grib2 2026-04-25 06:21 1.0M
20260425T00Z_MSC_CAPS_SpecificHumidity_IsbL-0200_RLatLon0.03_PT015H.grib2 2026-04-25 06:21 864K
20260425T00Z_MSC_CAPS_SpecificHumidity_IsbL-0225_RLatLon0.03_PT015H.grib2 2026-04-25 06:21 1.1M
20260425T00Z_MSC_CAPS_SpecificHumidity_IsbL-0250_RLatLon0.03_PT015H.grib2 2026-04-25 06:21 1.0M
20260425T00Z_MSC_CAPS_SpecificHumidity_IsbL-0275_RLatLon0.03_PT015H.grib2 2026-04-25 06:21 1.0M
20260425T00Z_MSC_CAPS_SpecificHumidity_IsbL-0300_RLatLon0.03_PT015H.grib2 2026-04-25 06:21 1.2M
20260425T00Z_MSC_CAPS_SpecificHumidity_IsbL-0350_RLatLon0.03_PT015H.grib2 2026-04-25 06:21 1.2M
20260425T00Z_MSC_CAPS_SpecificHumidity_IsbL-0400_RLatLon0.03_PT015H.grib2 2026-04-25 06:21 1.1M
20260425T00Z_MSC_CAPS_SpecificHumidity_IsbL-0450_RLatLon0.03_PT015H.grib2 2026-04-25 06:21 1.1M
20260425T00Z_MSC_CAPS_SpecificHumidity_IsbL-0500_RLatLon0.03_PT015H.grib2 2026-04-25 06:21 1.3M
20260425T00Z_MSC_CAPS_SpecificHumidity_IsbL-0550_RLatLon0.03_PT015H.grib2 2026-04-25 06:21 1.2M
20260425T00Z_MSC_CAPS_SpecificHumidity_IsbL-0600_RLatLon0.03_PT015H.grib2 2026-04-25 06:21 1.3M
20260425T00Z_MSC_CAPS_SpecificHumidity_IsbL-0650_RLatLon0.03_PT015H.grib2 2026-04-25 06:21 1.4M
20260425T00Z_MSC_CAPS_SpecificHumidity_IsbL-0700_RLatLon0.03_PT015H.grib2 2026-04-25 06:21 1.6M
20260425T00Z_MSC_CAPS_SpecificHumidity_IsbL-0750_RLatLon0.03_PT015H.grib2 2026-04-25 06:21 1.7M
20260425T00Z_MSC_CAPS_SpecificHumidity_IsbL-0800_RLatLon0.03_PT015H.grib2 2026-04-25 06:21 1.4M
20260425T00Z_MSC_CAPS_SpecificHumidity_IsbL-0850_RLatLon0.03_PT015H.grib2 2026-04-25 06:21 1.6M
20260425T00Z_MSC_CAPS_SpecificHumidity_IsbL-0875_RLatLon0.03_PT015H.grib2 2026-04-25 06:21 1.6M
20260425T00Z_MSC_CAPS_SpecificHumidity_IsbL-0900_RLatLon0.03_PT015H.grib2 2026-04-25 06:21 1.7M
20260425T00Z_MSC_CAPS_SpecificHumidity_IsbL-0925_RLatLon0.03_PT015H.grib2 2026-04-25 06:21 1.7M
20260425T00Z_MSC_CAPS_SpecificHumidity_IsbL-0950_RLatLon0.03_PT015H.grib2 2026-04-25 06:21 1.8M
20260425T00Z_MSC_CAPS_SpecificHumidity_IsbL-0970_RLatLon0.03_PT015H.grib2 2026-04-25 06:21 1.8M
20260425T00Z_MSC_CAPS_SpecificHumidity_IsbL-0985_RLatLon0.03_PT015H.grib2 2026-04-25 06:21 1.9M
20260425T00Z_MSC_CAPS_SpecificHumidity_IsbL-1000_RLatLon0.03_PT015H.grib2 2026-04-25 06:21 1.9M
20260425T00Z_MSC_CAPS_SpecificHumidity_IsbL-1015_RLatLon0.03_PT015H.grib2 2026-04-25 06:21 2.0M
20260425T00Z_MSC_CAPS_SpecificHumidity_Sfc_RLatLon0.03_PT015H.grib2 2026-04-25 06:21 2.4M
20260425T00Z_MSC_CAPS_StormRelativeHelicity_Sfc_RLatLon0.03_PT015H.grib2 2026-04-25 06:21 3.2M
20260425T00Z_MSC_CAPS_Thickness_IsbL-1000to0500_RLatLon0.03_PT015H.grib2 2026-04-25 06:21 395K
20260425T00Z_MSC_CAPS_TotalCloudCover_Sfc_RLatLon0.03_PT015H.grib2 2026-04-25 06:21 3.6M
20260425T00Z_MSC_CAPS_TurboclineDepth_Sfc_RLatLon0.03_PT015H.nc 2026-04-25 06:15 16M
20260425T00Z_MSC_CAPS_UpwardLongwaveRadiationFlux_NTAtm_RLatLon0.03_PT015H.grib2 2026-04-25 06:21 2.8M
20260425T00Z_MSC_CAPS_UpwardShortwaveRadiationFlux_NTAtm_RLatLon0.03_PT015H.grib2 2026-04-25 06:21 2.4M
20260425T00Z_MSC_CAPS_VerticalVelocity_IsbL-0250_RLatLon0.03_PT015H.grib2 2026-04-25 06:21 1.2M
20260425T00Z_MSC_CAPS_VerticalVelocity_IsbL-0500_RLatLon0.03_PT015H.grib2 2026-04-25 06:21 1.0M
20260425T00Z_MSC_CAPS_VerticalVelocity_IsbL-0700_RLatLon0.03_PT015H.grib2 2026-04-25 06:21 1.2M
20260425T00Z_MSC_CAPS_VerticalVelocity_IsbL-0850_RLatLon0.03_PT015H.grib2 2026-04-25 06:21 1.4M
20260425T00Z_MSC_CAPS_VerticalVelocity_IsbL-1000_RLatLon0.03_PT015H.grib2 2026-04-25 06:21 1.4M
20260425T00Z_MSC_CAPS_WindDir_AGL-10m_RLatLon0.03_PT015H.grib2 2026-04-25 06:21 2.4M
20260425T00Z_MSC_CAPS_WindDir_AGL-120m_RLatLon0.03_PT015H.grib2 2026-04-25 06:21 1.3M
20260425T00Z_MSC_CAPS_WindDir_AGL-40m_RLatLon0.03_PT015H.grib2 2026-04-25 06:21 1.4M
20260425T00Z_MSC_CAPS_WindDir_AGL-80m_RLatLon0.03_PT015H.grib2 2026-04-25 06:21 1.4M
20260425T00Z_MSC_CAPS_WindDir_IsbL-0050_RLatLon0.03_PT015H.grib2 2026-04-25 06:21 1.2M
20260425T00Z_MSC_CAPS_WindDir_IsbL-0100_RLatLon0.03_PT015H.grib2 2026-04-25 06:21 1.0M
20260425T00Z_MSC_CAPS_WindDir_IsbL-0150_RLatLon0.03_PT015H.grib2 2026-04-25 06:21 1.1M
20260425T00Z_MSC_CAPS_WindDir_IsbL-0175_RLatLon0.03_PT015H.grib2 2026-04-25 06:21 1.1M
20260425T00Z_MSC_CAPS_WindDir_IsbL-0200_RLatLon0.03_PT015H.grib2 2026-04-25 06:21 1.2M
20260425T00Z_MSC_CAPS_WindDir_IsbL-0225_RLatLon0.03_PT015H.grib2 2026-04-25 06:21 1.1M
20260425T00Z_MSC_CAPS_WindDir_IsbL-0250_RLatLon0.03_PT015H.grib2 2026-04-25 06:21 1.1M
20260425T00Z_MSC_CAPS_WindDir_IsbL-0275_RLatLon0.03_PT015H.grib2 2026-04-25 06:21 1.1M
20260425T00Z_MSC_CAPS_WindDir_IsbL-0300_RLatLon0.03_PT015H.grib2 2026-04-25 06:21 1.1M
20260425T00Z_MSC_CAPS_WindDir_IsbL-0350_RLatLon0.03_PT015H.grib2 2026-04-25 06:21 1.1M
20260425T00Z_MSC_CAPS_WindDir_IsbL-0400_RLatLon0.03_PT015H.grib2 2026-04-25 06:21 1.1M
20260425T00Z_MSC_CAPS_WindDir_IsbL-0450_RLatLon0.03_PT015H.grib2 2026-04-25 06:21 1.2M
20260425T00Z_MSC_CAPS_WindDir_IsbL-0500_RLatLon0.03_PT015H.grib2 2026-04-25 06:21 1.3M
20260425T00Z_MSC_CAPS_WindDir_IsbL-0550_RLatLon0.03_PT015H.grib2 2026-04-25 06:21 1.3M
20260425T00Z_MSC_CAPS_WindDir_IsbL-0600_RLatLon0.03_PT015H.grib2 2026-04-25 06:21 1.3M
20260425T00Z_MSC_CAPS_WindDir_IsbL-0650_RLatLon0.03_PT015H.grib2 2026-04-25 06:21 1.3M
20260425T00Z_MSC_CAPS_WindDir_IsbL-0700_RLatLon0.03_PT015H.grib2 2026-04-25 06:21 1.4M
20260425T00Z_MSC_CAPS_WindDir_IsbL-0750_RLatLon0.03_PT015H.grib2 2026-04-25 06:21 1.5M
20260425T00Z_MSC_CAPS_WindDir_IsbL-0800_RLatLon0.03_PT015H.grib2 2026-04-25 06:21 1.6M
20260425T00Z_MSC_CAPS_WindDir_IsbL-0850_RLatLon0.03_PT015H.grib2 2026-04-25 06:21 1.7M
20260425T00Z_MSC_CAPS_WindDir_IsbL-0875_RLatLon0.03_PT015H.grib2 2026-04-25 06:21 1.8M
20260425T00Z_MSC_CAPS_WindDir_IsbL-0900_RLatLon0.03_PT015H.grib2 2026-04-25 06:21 1.9M
20260425T00Z_MSC_CAPS_WindDir_IsbL-0925_RLatLon0.03_PT015H.grib2 2026-04-25 06:21 2.0M
20260425T00Z_MSC_CAPS_WindDir_IsbL-0950_RLatLon0.03_PT015H.grib2 2026-04-25 06:21 2.1M
20260425T00Z_MSC_CAPS_WindDir_IsbL-0970_RLatLon0.03_PT015H.grib2 2026-04-25 06:21 2.1M
20260425T00Z_MSC_CAPS_WindDir_IsbL-0985_RLatLon0.03_PT015H.grib2 2026-04-25 06:21 2.2M
20260425T00Z_MSC_CAPS_WindDir_IsbL-1000_RLatLon0.03_PT015H.grib2 2026-04-25 06:21 2.3M
20260425T00Z_MSC_CAPS_WindDir_IsbL-1015_RLatLon0.03_PT015H.grib2 2026-04-25 06:21 2.4M
20260425T00Z_MSC_CAPS_WindGust-Max_AGL-10m_RLatLon0.03_PT015H.grib2 2026-04-25 06:21 2.4M
20260425T00Z_MSC_CAPS_WindGust-Min_AGL-10m_RLatLon0.03_PT015H.grib2 2026-04-25 06:21 2.4M
20260425T00Z_MSC_CAPS_WindGust_AGL-10m_RLatLon0.03_PT015H.grib2 2026-04-25 06:21 2.4M
20260425T00Z_MSC_CAPS_WindSpeed_AGL-10m_RLatLon0.03_PT015H.grib2 2026-04-25 06:21 2.6M
20260425T00Z_MSC_CAPS_WindSpeed_AGL-120m_RLatLon0.03_PT015H.grib2 2026-04-25 06:21 1.5M
20260425T00Z_MSC_CAPS_WindSpeed_AGL-40m_RLatLon0.03_PT015H.grib2 2026-04-25 06:21 1.6M
20260425T00Z_MSC_CAPS_WindSpeed_AGL-80m_RLatLon0.03_PT015H.grib2 2026-04-25 06:21 1.5M
20260425T00Z_MSC_CAPS_WindSpeed_IsbL-0050_RLatLon0.03_PT015H.grib2 2026-04-25 06:21 1.0M
20260425T00Z_MSC_CAPS_WindSpeed_IsbL-0100_RLatLon0.03_PT015H.grib2 2026-04-25 06:21 1.1M
20260425T00Z_MSC_CAPS_WindSpeed_IsbL-0150_RLatLon0.03_PT015H.grib2 2026-04-25 06:21 1.0M
20260425T00Z_MSC_CAPS_WindSpeed_IsbL-0175_RLatLon0.03_PT015H.grib2 2026-04-25 06:21 1.2M
20260425T00Z_MSC_CAPS_WindSpeed_IsbL-0200_RLatLon0.03_PT015H.grib2 2026-04-25 06:21 1.2M
20260425T00Z_MSC_CAPS_WindSpeed_IsbL-0225_RLatLon0.03_PT015H.grib2 2026-04-25 06:21 949K
20260425T00Z_MSC_CAPS_WindSpeed_IsbL-0250_RLatLon0.03_PT015H.grib2 2026-04-25 06:21 1.0M
20260425T00Z_MSC_CAPS_WindSpeed_IsbL-0275_RLatLon0.03_PT015H.grib2 2026-04-25 06:21 1.0M
20260425T00Z_MSC_CAPS_WindSpeed_IsbL-0300_RLatLon0.03_PT015H.grib2 2026-04-25 06:21 1.0M
20260425T00Z_MSC_CAPS_WindSpeed_IsbL-0350_RLatLon0.03_PT015H.grib2 2026-04-25 06:21 1.0M
20260425T00Z_MSC_CAPS_WindSpeed_IsbL-0400_RLatLon0.03_PT015H.grib2 2026-04-25 06:21 1.0M
20260425T00Z_MSC_CAPS_WindSpeed_IsbL-0450_RLatLon0.03_PT015H.grib2 2026-04-25 06:21 1.0M
20260425T00Z_MSC_CAPS_WindSpeed_IsbL-0500_RLatLon0.03_PT015H.grib2 2026-04-25 06:21 1.4M
20260425T00Z_MSC_CAPS_WindSpeed_IsbL-0550_RLatLon0.03_PT015H.grib2 2026-04-25 06:21 1.4M
20260425T00Z_MSC_CAPS_WindSpeed_IsbL-0600_RLatLon0.03_PT015H.grib2 2026-04-25 06:21 1.4M
20260425T00Z_MSC_CAPS_WindSpeed_IsbL-0650_RLatLon0.03_PT015H.grib2 2026-04-25 06:21 1.4M
20260425T00Z_MSC_CAPS_WindSpeed_IsbL-0700_RLatLon0.03_PT015H.grib2 2026-04-25 06:21 1.4M
20260425T00Z_MSC_CAPS_WindSpeed_IsbL-0750_RLatLon0.03_PT015H.grib2 2026-04-25 06:21 1.5M
20260425T00Z_MSC_CAPS_WindSpeed_IsbL-0800_RLatLon0.03_PT015H.grib2 2026-04-25 06:21 1.6M
20260425T00Z_MSC_CAPS_WindSpeed_IsbL-0850_RLatLon0.03_PT015H.grib2 2026-04-25 06:21 1.6M
20260425T00Z_MSC_CAPS_WindSpeed_IsbL-0875_RLatLon0.03_PT015H.grib2 2026-04-25 06:21 1.7M
20260425T00Z_MSC_CAPS_WindSpeed_IsbL-0900_RLatLon0.03_PT015H.grib2 2026-04-25 06:21 1.7M
20260425T00Z_MSC_CAPS_WindSpeed_IsbL-0925_RLatLon0.03_PT015H.grib2 2026-04-25 06:21 1.8M
20260425T00Z_MSC_CAPS_WindSpeed_IsbL-0950_RLatLon0.03_PT015H.grib2 2026-04-25 06:21 1.9M
20260425T00Z_MSC_CAPS_WindSpeed_IsbL-0970_RLatLon0.03_PT015H.grib2 2026-04-25 06:21 1.9M
20260425T00Z_MSC_CAPS_WindSpeed_IsbL-0985_RLatLon0.03_PT015H.grib2 2026-04-25 06:21 2.0M
20260425T00Z_MSC_CAPS_WindSpeed_IsbL-1000_RLatLon0.03_PT015H.grib2 2026-04-25 06:21 2.0M
20260425T00Z_MSC_CAPS_WindSpeed_IsbL-1015_RLatLon0.03_PT015H.grib2 2026-04-25 06:21 2.1M
20260425T00Z_MSC_CAPS_WindU_AGL-10m_RLatLon0.03_PT015H.grib2 2026-04-25 06:21 2.0M
20260425T00Z_MSC_CAPS_WindU_AGL-120m_RLatLon0.03_PT015H.grib2 2026-04-25 06:21 1.2M
20260425T00Z_MSC_CAPS_WindU_AGL-40m_RLatLon0.03_PT015H.grib2 2026-04-25 06:21 1.2M
20260425T00Z_MSC_CAPS_WindU_AGL-80m_RLatLon0.03_PT015H.grib2 2026-04-25 06:21 1.2M
20260425T00Z_MSC_CAPS_WindU_IsbL-0050_RLatLon0.03_PT015H.grib2 2026-04-25 06:21 949K
20260425T00Z_MSC_CAPS_WindU_IsbL-0100_RLatLon0.03_PT015H.grib2 2026-04-25 06:21 789K
20260425T00Z_MSC_CAPS_WindU_IsbL-0150_RLatLon0.03_PT015H.grib2 2026-04-25 06:21 1.0M
20260425T00Z_MSC_CAPS_WindU_IsbL-0175_RLatLon0.03_PT015H.grib2 2026-04-25 06:21 948K
20260425T00Z_MSC_CAPS_WindU_IsbL-0200_RLatLon0.03_PT015H.grib2 2026-04-25 06:21 870K
20260425T00Z_MSC_CAPS_WindU_IsbL-0225_RLatLon0.03_PT015H.grib2 2026-04-25 06:21 883K
20260425T00Z_MSC_CAPS_WindU_IsbL-0250_RLatLon0.03_PT015H.grib2 2026-04-25 06:21 692K
20260425T00Z_MSC_CAPS_WindU_IsbL-0275_RLatLon0.03_PT015H.grib2 2026-04-25 06:21 700K
20260425T00Z_MSC_CAPS_WindU_IsbL-0300_RLatLon0.03_PT015H.grib2 2026-04-25 06:21 706K
20260425T00Z_MSC_CAPS_WindU_IsbL-0350_RLatLon0.03_PT015H.grib2 2026-04-25 06:21 718K
20260425T00Z_MSC_CAPS_WindU_IsbL-0400_RLatLon0.03_PT015H.grib2 2026-04-25 06:21 721K
20260425T00Z_MSC_CAPS_WindU_IsbL-0450_RLatLon0.03_PT015H.grib2 2026-04-25 06:21 954K
20260425T00Z_MSC_CAPS_WindU_IsbL-0500_RLatLon0.03_PT015H.grib2 2026-04-25 06:21 1.0M
20260425T00Z_MSC_CAPS_WindU_IsbL-0550_RLatLon0.03_PT015H.grib2 2026-04-25 06:21 1.0M
20260425T00Z_MSC_CAPS_WindU_IsbL-0600_RLatLon0.03_PT015H.grib2 2026-04-25 06:21 918K
20260425T00Z_MSC_CAPS_WindU_IsbL-0650_RLatLon0.03_PT015H.grib2 2026-04-25 06:21 946K
20260425T00Z_MSC_CAPS_WindU_IsbL-0700_RLatLon0.03_PT015H.grib2 2026-04-25 06:21 1.2M
20260425T00Z_MSC_CAPS_WindU_IsbL-0750_RLatLon0.03_PT015H.grib2 2026-04-25 06:21 1.3M
20260425T00Z_MSC_CAPS_WindU_IsbL-0800_RLatLon0.03_PT015H.grib2 2026-04-25 06:21 1.4M
20260425T00Z_MSC_CAPS_WindU_IsbL-0850_RLatLon0.03_PT015H.grib2 2026-04-25 06:21 1.5M
20260425T00Z_MSC_CAPS_WindU_IsbL-0875_RLatLon0.03_PT015H.grib2 2026-04-25 06:21 1.5M
20260425T00Z_MSC_CAPS_WindU_IsbL-0900_RLatLon0.03_PT015H.grib2 2026-04-25 06:21 1.6M
20260425T00Z_MSC_CAPS_WindU_IsbL-0925_RLatLon0.03_PT015H.grib2 2026-04-25 06:21 1.6M
20260425T00Z_MSC_CAPS_WindU_IsbL-0950_RLatLon0.03_PT015H.grib2 2026-04-25 06:21 1.7M
20260425T00Z_MSC_CAPS_WindU_IsbL-0970_RLatLon0.03_PT015H.grib2 2026-04-25 06:21 1.7M
20260425T00Z_MSC_CAPS_WindU_IsbL-0985_RLatLon0.03_PT015H.grib2 2026-04-25 06:21 1.8M
20260425T00Z_MSC_CAPS_WindU_IsbL-1000_RLatLon0.03_PT015H.grib2 2026-04-25 06:21 1.8M
20260425T00Z_MSC_CAPS_WindU_IsbL-1015_RLatLon0.03_PT015H.grib2 2026-04-25 06:21 2.0M
20260425T00Z_MSC_CAPS_WindV_AGL-10m_RLatLon0.03_PT015H.grib2 2026-04-25 06:21 2.0M
20260425T00Z_MSC_CAPS_WindV_AGL-120m_RLatLon0.03_PT015H.grib2 2026-04-25 06:21 1.2M
20260425T00Z_MSC_CAPS_WindV_AGL-40m_RLatLon0.03_PT015H.grib2 2026-04-25 06:21 1.2M
20260425T00Z_MSC_CAPS_WindV_AGL-80m_RLatLon0.03_PT015H.grib2 2026-04-25 06:21 1.2M
20260425T00Z_MSC_CAPS_WindV_IsbL-0050_RLatLon0.03_PT015H.grib2 2026-04-25 06:21 947K
20260425T00Z_MSC_CAPS_WindV_IsbL-0100_RLatLon0.03_PT015H.grib2 2026-04-25 06:21 788K
20260425T00Z_MSC_CAPS_WindV_IsbL-0150_RLatLon0.03_PT015H.grib2 2026-04-25 06:21 921K
20260425T00Z_MSC_CAPS_WindV_IsbL-0175_RLatLon0.03_PT015H.grib2 2026-04-25 06:21 950K
20260425T00Z_MSC_CAPS_WindV_IsbL-0200_RLatLon0.03_PT015H.grib2 2026-04-25 06:21 873K
20260425T00Z_MSC_CAPS_WindV_IsbL-0225_RLatLon0.03_PT015H.grib2 2026-04-25 06:21 885K
20260425T00Z_MSC_CAPS_WindV_IsbL-0250_RLatLon0.03_PT015H.grib2 2026-04-25 06:21 902K
20260425T00Z_MSC_CAPS_WindV_IsbL-0275_RLatLon0.03_PT015H.grib2 2026-04-25 06:21 911K
20260425T00Z_MSC_CAPS_WindV_IsbL-0300_RLatLon0.03_PT015H.grib2 2026-04-25 06:21 920K
20260425T00Z_MSC_CAPS_WindV_IsbL-0350_RLatLon0.03_PT015H.grib2 2026-04-25 06:21 933K
20260425T00Z_MSC_CAPS_WindV_IsbL-0400_RLatLon0.03_PT015H.grib2 2026-04-25 06:21 937K
20260425T00Z_MSC_CAPS_WindV_IsbL-0450_RLatLon0.03_PT015H.grib2 2026-04-25 06:21 955K
20260425T00Z_MSC_CAPS_WindV_IsbL-0500_RLatLon0.03_PT015H.grib2 2026-04-25 06:21 1.0M
20260425T00Z_MSC_CAPS_WindV_IsbL-0550_RLatLon0.03_PT015H.grib2 2026-04-25 06:21 1.0M
20260425T00Z_MSC_CAPS_WindV_IsbL-0600_RLatLon0.03_PT015H.grib2 2026-04-25 06:21 918K
20260425T00Z_MSC_CAPS_WindV_IsbL-0650_RLatLon0.03_PT015H.grib2 2026-04-25 06:21 946K
20260425T00Z_MSC_CAPS_WindV_IsbL-0700_RLatLon0.03_PT015H.grib2 2026-04-25 06:21 1.0M
20260425T00Z_MSC_CAPS_WindV_IsbL-0750_RLatLon0.03_PT015H.grib2 2026-04-25 06:21 1.0M
20260425T00Z_MSC_CAPS_WindV_IsbL-0800_RLatLon0.03_PT015H.grib2 2026-04-25 06:21 1.1M
20260425T00Z_MSC_CAPS_WindV_IsbL-0850_RLatLon0.03_PT015H.grib2 2026-04-25 06:21 1.5M
20260425T00Z_MSC_CAPS_WindV_IsbL-0875_RLatLon0.03_PT015H.grib2 2026-04-25 06:21 1.2M
20260425T00Z_MSC_CAPS_WindV_IsbL-0900_RLatLon0.03_PT015H.grib2 2026-04-25 06:21 1.2M
20260425T00Z_MSC_CAPS_WindV_IsbL-0925_RLatLon0.03_PT015H.grib2 2026-04-25 06:21 1.3M
20260425T00Z_MSC_CAPS_WindV_IsbL-0950_RLatLon0.03_PT015H.grib2 2026-04-25 06:21 1.7M
20260425T00Z_MSC_CAPS_WindV_IsbL-0970_RLatLon0.03_PT015H.grib2 2026-04-25 06:21 1.7M
20260425T00Z_MSC_CAPS_WindV_IsbL-0985_RLatLon0.03_PT015H.grib2 2026-04-25 06:21 1.8M
20260425T00Z_MSC_CAPS_WindV_IsbL-1000_RLatLon0.03_PT015H.grib2 2026-04-25 06:21 2.0M
20260425T00Z_MSC_CAPS_WindV_IsbL-1015_RLatLon0.03_PT015H.grib2 2026-04-25 06:21 2.0M